When you browse on this site, cookies collect data to enhance your experience and personalize the content and advertising you see.
Visit our Privacy Policy to learn more. By continuing to use the site, you agree to this use of cookies and data.
  • In Schweiz
  • Länderverzeichnis
  • Für 7 Tage
  • Wassertemperatur
  • Wetterkarte
  • Widgets
  • user-avatar
    Anmelden

    Stündliche Wetter Idshewan

    Heute, 22 August, Donnerstag

    Zeit Temperatur Niederschläge Wind Luftdruck Luftfeuchtigkeit
    00:00 +22°C° 0 mm 1 m/S 693 mmHg 40%
    01:00 +22°C° 0 mm 1 m/S 693 mmHg 41%
    02:00 +21°C° 0 mm 1 m/S 693 mmHg 42%
    03:00 +21°C° 0 mm 1 m/S 693 mmHg 43%
    04:00 +21°C° 0 mm 1 m/S 693 mmHg 44%
    05:00 +21°C° 0 mm 1 m/S 693 mmHg 45%
    06:00 +21°C° 0 mm 1 m/S 693 mmHg 46%
    07:00 +23°C° 0 mm 1 m/S 693 mmHg 42%
    08:00 +26°C° 0 mm 2 m/S 693 mmHg 38%
    09:00 +28°C° 0 mm 2 m/S 693 mmHg 34%
    10:00 +29°C° 0 mm 2 m/S 693 mmHg 32%
    11:00 +30°C° 0 mm 3 m/S 693 mmHg 31%
    12:00 +33°C° 0 mm 3 m/S 692 mmHg 29%
    13:00 +33°C° 0 mm 3 m/S 692 mmHg 28%
    14:00 +33°C° 0 mm 3 m/S 692 mmHg 28%
    15:00 +34°C° 0 mm 3 m/S 691 mmHg 27%
    16:00 +33°C° 0 mm 3 m/S 691 mmHg 30%
    17:00 +30°C° 0 mm 2 m/S 691 mmHg 33%
    18:00 +29°C° 0 mm 2 m/S 691 mmHg 36%
    19:00 +27°C° 0 mm 2 m/S 691 mmHg 37%
    20:00 +25°C° 0 mm 2 m/S 691 mmHg 38%
    21:00 +23°C° 0 mm 1 m/S 692 mmHg 39%
    22:00 +23°C° 0 mm 1 m/S 692 mmHg 40%
    23:00 +22°C° 0 mm 1 m/S 692 mmHg 40%

    Morgen, 23 August, Freitag

    Zeit Temperatur Niederschläge Wind Luftdruck Luftfeuchtigkeit
    00:00 +21°C° 0 mm 2 m/S 692 mmHg 41%
    01:00 +21°C° 0 mm 1 m/S 692 mmHg 43%
    02:00 +20°C° 0 mm 1 m/S 692 mmHg 44%
    03:00 +20°C° 0 mm 1 m/S 692 mmHg 46%
    04:00 +20°C° 0 mm 1 m/S 692 mmHg 47%
    05:00 +20°C° 0 mm 1 m/S 692 mmHg 49%
    06:00 +19°C° 0 mm 2 m/S 692 mmHg 50%
    07:00 +21°C° 0 mm 2 m/S 693 mmHg 46%
    08:00 +25°C° 0 mm 2 m/S 693 mmHg 41%
    09:00 +27°C° 0 mm 2 m/S 693 mmHg 37%
    10:00 +28°C° 0 mm 2 m/S 693 mmHg 34%
    11:00 +30°C° 0 mm 2 m/S 693 mmHg 32%
    12:00 +31°C° 0 mm 3 m/S 693 mmHg 30%
    13:00 +33°C° 0 mm 3 m/S 693 mmHg 29%
    14:00 +33°C° 0 mm 4 m/S 692 mmHg 28%
    15:00 +34°C° 0 mm 5 m/S 692 mmHg 28%
    16:00 +33°C° 0 mm 4 m/S 692 mmHg 32%
    17:00 +30°C° 0 mm 3 m/S 692 mmHg 35%
    18:00 +29°C° 0 mm 2 m/S 692 mmHg 39%
    19:00 +27°C° 0 mm 2 m/S 692 mmHg 42%
    20:00 +25°C° 0 mm 2 m/S 692 mmHg 44%
    21:00 +24°C° 0 mm 2 m/S 693 mmHg 47%
    22:00 +23°C° 0 mm 2 m/S 693 mmHg 47%
    23:00 +23°C° 0 mm 2 m/S 693 mmHg 48%

    übermorgen, 24 August, Samstag

    Zeit Temperatur Niederschläge Wind Luftdruck Luftfeuchtigkeit
    00:00 +21°C° 0 mm 2 m/S 693 mmHg 49%
    01:00 +21°C° 0 mm 2 m/S 693 mmHg 51%
    02:00 +20°C° 0 mm 2 m/S 693 mmHg 53%
    03:00 +21°C° 0 mm 1 m/S 692 mmHg 55%
    04:00 +21°C° 0 mm 1 m/S 693 mmHg 55%
    05:00 +21°C° 0 mm 1 m/S 693 mmHg 56%
    06:00 +21°C° 0 mm 1 m/S 693 mmHg 56%
    07:00 +23°C° 0 mm 1 m/S 693 mmHg 50%
    08:00 +26°C° 0 mm 2 m/S 694 mmHg 44%
    09:00 +28°C° 0 mm 2 m/S 694 mmHg 38%
    10:00 +30°C° 0 mm 2 m/S 694 mmHg 36%
    11:00 +31°C° 0 mm 2 m/S 694 mmHg 33%
    12:00 +33°C° 0 mm 3 m/S 694 mmHg 31%
    13:00 +34°C° 0.1 mm 3 m/S 694 mmHg 31%
    14:00 +34°C° 0.1 mm 3 m/S 693 mmHg 31%
    15:00 +34°C° 0.1 mm 3 m/S 693 mmHg 30%
    16:00 +32°C° 0.1 mm 2 m/S 693 mmHg 35%
    17:00 +30°C° 0.1 mm 2 m/S 693 mmHg 40%
    18:00 +29°C° 0.1 mm 2 m/S 693 mmHg 45%
    19:00 +27°C° 0.2 mm 2 m/S 694 mmHg 53%
    20:00 +25°C° 0.2 mm 2 m/S 694 mmHg 60%
    21:00 +22°C° 0.2 mm 3 m/S 695 mmHg 67%
    22:00 +23°C° 0 mm 2 m/S 695 mmHg 66%
    23:00 +23°C° 0 mm 2 m/S 695 mmHg 64%

    25 August, Sonntag

    Zeit Temperatur Niederschläge Wind Luftdruck Luftfeuchtigkeit
    00:00 +23°C° 0 mm 2 m/S 695 mmHg 63%
    01:00 +21°C° 0 mm 2 m/S 694 mmHg 63%
    02:00 +22°C° 0 mm 1 m/S 694 mmHg 63%
    03:00 +22°C° 0 mm 1 m/S 694 mmHg 63%
    04:00 +22°C° 0 mm 1 m/S 694 mmHg 64%
    05:00 +22°C° 0 mm 1 m/S 694 mmHg 65%
    06:00 +20°C° 0 mm 2 m/S 694 mmHg 66%
    07:00 +24°C° 0 mm 2 m/S 694 mmHg 59%
    08:00 +26°C° 0 mm 2 m/S 694 mmHg 52%
    09:00 +29°C° 0 mm 2 m/S 695 mmHg 45%
    10:00 +30°C° 0 mm 2 m/S 694 mmHg 43%
    11:00 +31°C° 0 mm 2 m/S 694 mmHg 40%
    12:00 +33°C° 0 mm 3 m/S 694 mmHg 37%
    13:00 +33°C° 0.1 mm 3 m/S 694 mmHg 37%
    14:00 +34°C° 0.1 mm 3 m/S 693 mmHg 38%
    15:00 +34°C° 0.1 mm 3 m/S 693 mmHg 38%
    16:00 +31°C° 0.1 mm 2 m/S 693 mmHg 42%
    17:00 +30°C° 0.1 mm 2 m/S 693 mmHg 47%
    18:00 +29°C° 0.1 mm 1 m/S 693 mmHg 51%
    19:00 +28°C° 0.1 mm 1 m/S 693 mmHg 54%
    20:00 +26°C° 0.1 mm 2 m/S 693 mmHg 57%
    21:00 +25°C° 0.1 mm 2 m/S 693 mmHg 60%
    22:00 +24°C° 0.6 mm 2 m/S 694 mmHg 64%
    23:00 +24°C° 0.6 mm 2 m/S 694 mmHg 67%

    26 August, Montag

    Zeit Temperatur Niederschläge Wind Luftdruck Luftfeuchtigkeit
    00:00 +23°C° 0.6 mm 2 m/S 694 mmHg 70%
    01:00 +23°C° 0 mm 2 m/S 693 mmHg 69%
    02:00 +22°C° 0 mm 1 m/S 693 mmHg 69%
    03:00 +22°C° 0 mm 1 m/S 693 mmHg 69%
    04:00 +22°C° 0 mm 1 m/S 693 mmHg 70%
    05:00 +22°C° 0 mm 1 m/S 693 mmHg 70%
    06:00 +21°C° 0 mm 1 m/S 693 mmHg 71%
    07:00 +23°C° 0.2 mm 1 m/S 693 mmHg 66%
    08:00 +25°C° 0.2 mm 1 m/S 693 mmHg 60%
    09:00 +27°C° 0.2 mm 1 m/S 693 mmHg 54%
    10:00 +28°C° 0.1 mm 2 m/S 693 mmHg 51%
    11:00 +29°C° 0.1 mm 2 m/S 693 mmHg 48%
    12:00 +31°C° 0.1 mm 3 m/S 693 mmHg 44%
    13:00 +31°C° 0.1 mm 3 m/S 692 mmHg 43%
    14:00 +31°C° 0.1 mm 3 m/S 692 mmHg 42%
    15:00 +33°C° 0.1 mm 3 m/S 692 mmHg 42%
    16:00 +30°C° 0.4 mm 2 m/S 692 mmHg 48%
    17:00 +29°C° 0.4 mm 2 m/S 692 mmHg 54%
    18:00 +27°C° 0.4 mm 1 m/S 692 mmHg 60%
    19:00 +26°C° 0.1 mm 1 m/S 693 mmHg 64%
    20:00 +25°C° 0.1 mm 1 m/S 693 mmHg 68%
    21:00 +24°C° 0.1 mm 1 m/S 694 mmHg 71%
    22:00 +24°C° 0.4 mm 1 m/S 694 mmHg 75%
    23:00 +23°C° 0.4 mm 1 m/S 694 mmHg 78%

    27 August, Dienstag

    Zeit Temperatur Niederschläge Wind Luftdruck Luftfeuchtigkeit
    00:00 +20°C° 0.4 mm 0 m/S 694 mmHg 82%
    01:00 +22°C° 0.1 mm 1 m/S 694 mmHg 83%
    02:00 +21°C° 0.1 mm 1 m/S 694 mmHg 84%
    03:00 +20°C° 0.1 mm 1 m/S 694 mmHg 85%
    04:00 +20°C° 0 mm 1 m/S 694 mmHg 85%
    05:00 +18°C° 0 mm 0 m/S 694 mmHg 85%
    06:00 +18°C° 0 mm 0 m/S 694 mmHg 85%
    07:00 +22°C° 0 mm 1 m/S 695 mmHg 78%
    08:00 +24°C° 0 mm 1 m/S 695 mmHg 70%
    09:00 +25°C° 0 mm 2 m/S 695 mmHg 62%
    10:00 +26°C° 0.1 mm 2 m/S 695 mmHg 57%
    11:00 +27°C° 0.1 mm 2 m/S 695 mmHg 52%
    12:00 +28°C° 0.1 mm 2 m/S 695 mmHg 46%
    13:00 +29°C° 0.1 mm 2 m/S 694 mmHg 44%
    14:00 +29°C° 0.1 mm 2 m/S 694 mmHg 42%
    15:00 +30°C° 0.1 mm 2 m/S 694 mmHg 40%
    16:00 +29°C° 0.2 mm 2 m/S 694 mmHg 44%
    17:00 +28°C° 0.2 mm 2 m/S 694 mmHg 49%
    18:00 +26°C° 0.2 mm 2 m/S 694 mmHg 53%
    19:00 +25°C° 0.3 mm 2 m/S 695 mmHg 57%
    20:00 +24°C° 0.3 mm 2 m/S 695 mmHg 61%
    21:00 +21°C° 0.3 mm 2 m/S 695 mmHg 64%
    22:00 +22°C° 0 mm 1 m/S 696 mmHg 66%
    23:00 +22°C° 0 mm 1 m/S 696 mmHg 67%
    Mehr zeigen